Lid_Strength_Index
1 -0 0 -0 0 0 0 1 1 1 1 -0 -0 -0 1 2 3 7 9 5 2 -1 1 4 4 4 5 6 5 7 12 14 12 12 11 9 9 9 7 7 7 6 6 5 3
0 -0 -0 -0 -1 -0 -0 0 0 -0 1 2 2 2 0 1 5 8 5 2 0 -0 5 5 6 5 8 8 7 9 14 13 11 10 11 10 9 8 8 8 9 8 6 4 4
0 0 -0 -1 -1 -1 -1 -1 -1 -0 -1 0 1 3 3 2 7 10 1 1 1 1 4 4 5 6 10 9 8 10 12 11 10 9 8 9 9 9 9 10 7 7 6 4 5
1 1 0 -0 -1 -1 -1 -1 -1 -1 -1 -1 -0 1 3 6 17 4 -0 -1 -1 2 4 5 6 8 10 10 9 11 9 10 9 8 8 10 8 8 9 8 7 6 5 4 5
1 1 1 0 -0 -0 -1 -1 -1 -1 -1 -1 -1 -0 4 10 11 5 0 -0 0 2 6 6 7 8 10 10 9 10 9 8 8 8 8 8 9 9 8 7 6 5 5 5 5
1 1 1 1 -0 -1 -1 -0 -1 -1 -1 -1 -1 -0 6 12 7 6 4 4 3 3 5 4 6 6 8 10 11 10 10 9 8 9 9 9 10 9 9 8 6 6 6 5 5
0 1 1 1 -0 -1 -1 -1 -1 -1 -1 -1 -1 3 7 9 4 4 5 5 4 5 5 3 4 6 7 9 8 9 11 11 10 9 9 9 11 10 7 8 8 8 6 5 5
0 0 -0 0 0 -1 -1 -2 -2 -1 -1 -2 -1 4 9 3 4 4 4 4 3 4 5 4 4 5 7 7 9 11 11 14 11 9 9 10 15 10 8 9 9 8 9 9 6
-1 -0 -1 -0 -1 -1 -1 -2 -2 -1 -1 -1 3 5 9 2 5 4 4 4 2 3 4 4 6 8 8 11 13 13 17 14 11 9 10 11 15 9 9 10 10 11 11 10 10
-1 -1 -1 -1 -1 -2 -2 -2 -1 -1 -0 -0 2 7 7 8 5 5 5 4 4 4 6 6 7 10 12 14 18 16 15 14 13 12 12 14 14 10 9 11 11 12 12 11 11
-1 -1 -1 -1 -2 -2 -1 1 4 5 3 6 7 9 8 6 4 6 4 5 4 6 11 9 11 14 12 10 13 14 15 17 16 13 15 16 16 14 11 13 12 11 12 12 10
-1 -1 -1 -1 -2 -2 -0 4 4 3 8 4 4 6 6 6 8 6 4 7 8 11 9 11 13 10 9 10 11 12 15 17 14 13 14 16 17 15 13 13 12 11 11 10 10
-1 -1 -1 -2 -2 -0 2 3 0 1 8 7 5 5 5 6 9 8 6 7 10 11 11 13 12 8 10 11 13 13 14 14 14 12 13 15 18 17 14 15 12 11 10 10 10
-1 -1 -1 -2 1 1 4 1 -0 1 12 11 8 6 5 5 9 6 6 7 9 11 11 12 11 10 12 12 11 15 11 11 12 13 17 15 21 18 16 15 14 13 12 12 12
-1 -1 -2 -2 2 4 3 0 0 3 20 9 9 3 4 7 8 8 6 7 11 11 11 14 12 12 13 12 10 13 10 11 12 14 16 17 18 19 17 16 14 13 12 13 13
-1 -1 -1 0 1 2 0 0 2 13 19 12 9 9 9 8 8 7 8 7 8 10 11 13 11 11 11 10 9 10 12 13 14 15 20 18 18 21 18 16 15 15 15 13 14
-1 -1 -0 -0 4 1 -0 4 14 17 10 13 12 10 10 11 10 9 10 11 12 16 17 15 14 12 10 12 10 11 14 20 20 20 22 18 18 18 15 13 14 14 14 14 12
-1 -1 -0 0 -0 -0 2 10 17 14 13 10 10 10 13 10 11 10 11 13 10 13 16 16 19 13 11 12 13 12 12 18 22 21 21 17 19 18 14 12 12 12 13 13 12
-1 1 2 0 -0 0 7 15 15 13 11 12 11 13 13 11 11 11 12 12 10 11 14 17 17 12 12 11 10 13 15 12 17 22 22 19 18 16 14 13 13 13 13 12 12
3 3 3 0 0 3 10 13 14 10 9 10 14 12 15 13 13 13 13 10 11 10 11 13 16 13 10 10 11 11 10 16 17 26 26 21 21 20 17 15 13 14 12 12 11
4 7 3 1 2 8 13 12 10 9 9 11 13 13 13 14 12 13 13 10 9 10 9 12 14 16 12 13 13 13 14 14 14 17 21 24 21 17 15 14 14 14 13 12 11
7 10 2 1 9 9 12 13 9 10 9 9 13 12 12 12 13 13 13 11 8 8 11 11 13 16 15 13 10 10 12 12 15 19 17 18 19 16 15 15 14 13 13 11 11
9 9 2 3 12 12 15 13 12 11 11 10 12 11 10 12 14 12 11 8 8 9 10 10 13 17 17 13 13 13 12 12 13 15 17 19 18 15 16 15 14 14 13 12 11
9 11 7 6 8 15 19 18 17 10 10 10 11 9 12 12 11 13 12 10 9 8 7 7 12 14 17 15 14 14 12 12 12 16 16 16 16 15 16 15 13 13 13 12 12
8 9 8 12 10 11 12 14 16 15 10 9 11 12 12 15 14 13 11 10 9 8 8 9 15 13 12 12 13 13 13 12 13 12 15 14 14 14 12 14 14 14 13 13 11
8 9 10 9 9 10 12 15 13 13 11 12 13 10 10 12 11 13 11 11 12 9 10 9 14 13 14 12 12 13 12 12 12 11 12 12 13 11 10 13 14 13 13 13 11
6 7 7 9 10 11 13 13 12 10 10 9 10 10 11 10 8 9 8 9 9 10 11 12 13 15 17 13 13 16 13 12 12 11 11 14 12 9 10 12 12 13 11 11 11